#timestamp,LO_Frequency,Hit,StdDev 
1458874815.8,286046998.8,N
1458874835.6,286046996.9,N
1458874855.5,286046998.2,N
1458874875.3,286046998.7,N
1458874895.1,286046999.5,N
1458874915.9,286047004.4,N
1458874935.7,286046999.7,N
1458874955.5,286047000.0,N
1458874975.4,286047000.9,N
1458874995.2,286046998.6,N
1458875015.0,286047001.6,N
1458875015.9,286047001.6,N
1458875035.8,286047002.8,N
1458875055.6,286046999.7,N
1458875075.4,286047002.3,N
1458875095.2,286047000.9,N
1458875115.1,286047000.6,N
1458875116.0,286047000.6,N
1458875135.8,286046996.6,N
1458875155.6,286047000.7,N
1458875175.5,286046997.0,N
1458875195.3,286046998.3,N
1458875215.1,286046998.6,N
1458875235.9,286046998.8,N
1458875255.7,286047002.6,N
1458875275.5,286047003.6,N
1458875295.4,286047004.4,N
1458875315.2,286047001.8,N
1458875335.0,286046998.4,N
1458875335.9,286046998.4,N
1458875355.8,286046998.4,N
1458875375.6,286047001.0,N
1458875395.4,286047001.9,N
1458875415.2,286047002.2,N
1458875435.1,286046999.9,N
1458875436.0,286046999.9,N
1458875455.8,286047000.5,N
1458875475.6,286047000.9,N
1458875495.5,286047000.7,N
1458875515.3,286046995.1,N
1458875535.1,286046998.8,N
1458875555.9,286046998.1,N
1458875575.7,286047002.4,N
1458875595.5,286047001.2,N
1458875615.4,286046998.5,N
1458875635.2,286046999.8,N
1458875655.0,286047000.9,N
1458875655.9,286047000.9,N
1458875675.8,286047001.9,N
1458875695.6,286047000.4,N
1458875715.4,286046999.1,N
1458875735.2,286046998.2,N
1458875755.1,286046998.4,N
1458875756.0,286046998.4,N
1458875775.8,286046996.6,N
1458875795.6,286046996.7,N
1458875815.5,286046995.1,N
1458875835.3,286046999.5,N
1458875855.1,286046997.8,N
1458875875.9,286046991.8,Y
1458875895.7,286046998.0,P
1458875915.5,286046997.1,P
1458875935.4,286046997.4,N
1458875955.2,286046996.6,Y
1458875975.0,286047000.8,P
1458875975.9,286047000.8,N
1458875995.8,286047002.6,N
1458876015.6,286047001.3,N
1458876035.4,286046998.5,N
1458876055.3,286046999.7,N
1458876075.1,286047000.4,N
1458876076.0,286047000.4,N
1458876095.8,286047001.6,N
1458876115.7,286046999.4,N
1458876135.5,286046996.9,N
1458876155.3,286046994.5,Y
1458876175.2,286046992.9,P
1458876195.9,286046991.1,N
1458876215.7,286046991.2,N
1458876235.6,286046990.3,N
1458876255.4,286046991.2,N
1458876275.2,286046989.5,Y
1458876295.1,286046998.0,P
1458876296.0,286046998.0,N
1458876315.8,286046994.7,N
1458876335.6,286046994.5,N
1458876355.5,286046994.2,N
1458876375.3,286046995.2,N
1458876395.1,286046993.8,Y
1458876415.9,286046998.8,P
1458876435.7,286046998.2,N
1458876455.5,286047002.1,N
1458876475.4,286046998.4,N
1458876495.2,286047003.2,N
1458876515.0,286047000.1,N
1458876515.9,286047000.1,N
1458876535.7,286047002.1,N
1458876555.6,286047000.4,N
1458876575.4,286046999.5,N
1458876595.2,286046999.6,N
1458876615.1,286046999.2,N
1458876616.0,286046999.2,N
1458876635.8,286046999.6,N
1458876655.6,286047002.8,N
1458876675.5,286047003.8,N
1458876695.3,286047004.9,N
1458876715.1,286047003.8,N
1458876735.9,286047005.6,N
1458876755.7,286047004.4,N
1458876775.5,286047002.5,N
1458876795.3,286047002.5,N
1458876815.2,286046999.9,N
1458876835.0,286047002.9,N
1458876835.9,286047002.9,N
1458876855.7,286047004.1,N
1458876875.6,286047005.2,N
1458876895.4,286047005.6,N
1458876915.2,286047002.2,N
1458876935.1,286047004.0,N
1458876936.0,286047004.0,N
1458876955.8,286047005.7,N
1458876975.6,286047007.0,Y
1458876995.5,286047007.5,P
1458877015.3,286047007.6,N
1458877035.1,286047006.3,N
1458877055.9,286047008.6,Y
1458877075.7,286047001.3,P
1458877095.5,286047002.5,N
1458877115.4,286047003.9,N
1458877135.2,286047001.3,N
1458877155.0,286047001.8,N
1458877155.9,286047001.8,N
1458877175.8,286047001.5,N
1458877195.6,286047004.1,N
1458877215.4,286047007.5,Y
1458877235.3,286047003.2,P
1458877255.1,286047007.0,P
1458877256.0,286047007.0,P
1458877275.8,286047006.8,Y
1458877295.7,286047002.0,P
1458877315.5,286047001.5,N
1458877335.3,286047004.1,N
1458877355.2,286047003.1,N
1458877375.9,286047005.1,Y
1458877395.7,286047001.4,P
1458877415.6,286047003.9,P
1458877435.4,286047005.1,P
1458877455.2,286047006.8,Y
1458877475.1,286047001.9,P
1458877476.0,286047001.9,N
1458877495.8,286047000.4,N
1458877515.6,286047007.2,Y
1458877535.5,286047006.0,P
1458877555.3,286047008.9,P
1458877575.1,286047008.9,P
1458877595.9,286047009.3,Y
1458877615.7,286047005.2,P
1458877635.5,286047006.5,P
1458877655.4,286047008.6,P
1458877675.2,286047012.2,Y
1458877695.0,286047006.0,P
1458877695.9,286047006.0,P
1458877715.8,286047003.8,P
1458877735.6,286047003.2,N
1458877755.4,286047005.3,Y
1458877775.3,286047003.9,P
1458877795.1,286047005.4,P
1458877796.0,286047005.4,P
1458877815.8,286047002.9,Y
1458877835.7,286047002.1,P
1458877855.5,286047004.9,P
1458877875.3,286047007.0,P
1458877895.2,286047004.8,N
1458877915.9,286047007.5,Y
1458877935.7,286047000.3,P
1458877955.6,286046999.5,N
1458877975.4,286046999.6,N
1458877995.2,286046997.6,N
1458878015.1,286046995.2,N
1458878016.0,286046995.2,N
1458878035.8,286046995.1,N
1458878055.6,286046990.5,Y
1458878075.5,286046991.7,P
1458878095.3,286046992.9,N
1458878115.1,286046989.7,P
1458878135.9,286046988.8,Y
1458878155.7,286046997.6,P
1458878175.5,286046998.1,N
1458878195.4,286046997.8,N
1458878215.2,286046994.6,N
1458878235.0,286046997.8,N
1458878235.9,286046997.8,N
1458878255.8,286046999.5,N
1458878275.6,286046997.9,N
1458878295.4,286046994.5,N
1458878315.3,286046994.0,Y
1458878335.1,286046997.7,P
1458878336.0,286046997.7,P
1458878355.8,286046997.0,P
1458878375.7,286046995.1,Y
1458878395.5,286047000.5,P
